Snowfall_Accumulation
0.2 1.4 3.7 1.2 0.6 1.1 1.0 1.4 1.5 0.4 0.0 0.1 0.2 0.4 0.3 0.0 0.0 0.0 0.0 0.0 0.0 0.0 0.0 0.0 0.0 0.0 0.0 0.0 0.0 0.0 0.0 0.0 0.0 0.0 0.0 0.0 0.0 0.0 0.0 0.0 0.0 0.0 0.0 0.0
2.1 3.4 1.0 0.4 0.5 1.1 1.3 1.9 1.7 0.6 0.0 0.3 0.3 0.4 0.0 0.0 0.0 0.0 0.0 0.0 0.0 0.0 0.0 0.0 0.0 0.0 0.0 0.0 0.0 0.0 0.0 0.0 0.0 0.0 0.0 0.0 0.0 0.0 0.0 0.0 0.0 0.0 0.0 0.0
4.0 1.6 0.1 0.5 0.8 1.7 1.7 2.0 1.2 1.4 0.3 0.1 0.4 1.0 0.5 0.4 0.0 0.0 0.0 0.0 0.0 0.0 0.0 0.0 0.0 0.0 0.0 0.0 0.0 0.0 0.0 0.0 0.0 0.0 0.0 0.0 0.0 0.0 0.0 0.0 0.0 0.0 0.0 0.0
1.4 0.5 0.2 0.9 0.8 1.4 2.5 0.4 0.5 0.9 1.5 2.9 1.4 4.6 0.9 0.4 0.4 0.2 0.0 0.0 0.0 0.0 0.0 0.0 0.0 0.0 0.0 0.0 0.0 0.0 0.0 0.0 0.0 0.0 0.0 0.0 0.0 0.0 0.0 0.0 0.0 0.0 0.0 0.0
2.6 0.3 0.5 1.8 0.5 0.7 1.3 0.3 0.5 0.7 1.9 3.4 1.3 4.0 2.3 1.0 1.1 0.3 0.3 0.1 0.0 0.0 0.0 0.0 0.0 0.0 0.0 0.0 0.0 0.0 0.0 0.0 0.0 0.0 0.0 0.0 0.0 0.0 0.0 0.0 0.0 0.0 0.0 0.0
0.7 0.1 0.2 0.3 0.1 0.2 0.3 0.2 0.6 1.3 3.3 7.4 2.2 3.5 3.2 2.3 1.9 0.3 0.2 0.2 0.1 0.0 0.0 0.0 0.0 0.0 0.0 0.0 0.0 0.0 0.0 0.0 0.0 0.0 0.0 0.0 0.0 0.0 0.0 0.0 0.0 0.0 0.0 0.0
6.3 1.2 0.3 0.1 1.5 0.7 1.2 7.2 14.1 13.0 11.2 5.2 1.2 2.2 3.0 1.1 0.3 0.4 0.2 0.2 0.2 0.1 0.1 0.0 0.0 0.0 0.0 0.0 0.0 0.0 0.0 0.0 0.0 0.0 0.0 0.0 0.0 0.0 0.0 0.0 0.0 0.0 0.0 0.0
9.4 7.4 1.0 0.3 0.6 1.5 1.7 4.8 10.6 9.1 5.9 2.5 1.4 2.2 2.5 0.2 0.1 0.2 0.2 0.3 0.1 0.1 0.1 0.1 0.0 0.0 0.0 0.0 0.0 0.0 0.0 0.0 0.0 0.0 0.0 0.0 0.0 0.0 0.0 0.0 0.0 0.0 0.0 0.0
6.6 5.6 0.2 0.1 0.2 0.8 2.8 4.2 3.3 7.0 5.0 3.3 1.9 1.7 1.0 0.3 0.3 0.3 0.3 0.2 0.2 0.1 0.1 0.1 0.1 0.0 0.0 0.0 0.0 0.0 0.0 0.0 0.0 0.0 0.0 0.0 0.0 0.0 0.0 0.0 0.0 0.0 0.0 0.0
3.1 6.6 1.5 0.1 0.2 0.3 0.4 1.7 5.5 10.9 8.4 4.6 1.9 1.5 2.3 1.9 1.2 0.7 0.2 0.2 0.1 0.1 0.1 0.1 0.0 0.0 0.0 0.0 0.0 0.0 0.0 0.0 0.0 0.0 0.0 0.0 0.0 0.0 0.0 0.0 0.0 0.0 0.0 0.0
0.9 7.5 5.0 1.9 2.6 3.0 2.6 4.4 6.7 8.3 6.6 5.9 3.5 2.0 1.3 1.3 0.9 0.6 0.2 0.1 0.1 0.1 0.1 0.0 0.0 0.0 0.0 0.0 0.0 0.0 0.0 0.0 0.0 0.0 0.0 0.0 0.0 0.0 0.0 0.0 0.0 0.0 0.0 0.0
0.7 5.6 6.7 2.6 0.0 0.0 1.3 3.1 5.4 10.1 7.2 5.5 4.5 2.5 0.2 0.6 0.3 0.1 0.1 0.1 0.1 0.1 0.0 0.0 0.0 0.0 0.0 0.0 0.0 0.0 0.0 0.0 0.0 0.0 0.0 0.0 0.0 0.0 0.0 0.0 0.0 0.0 0.0 0.0
0.9 6.9 9.0 4.0 1.4 0.1 3.4 2.2 2.4 5.6 10.5 8.5 6.5 2.7 0.1 0.1 0.1 0.1 0.1 0.1 0.1 0.1 0.0 0.0 0.1 0.0 0.0 0.0 0.0 0.0 0.0 0.0 0.0 0.0 0.0 0.0 0.0 0.0 0.0 0.0 0.0 0.0 0.0 0.0
0.3 6.3 6.7 5.1 3.9 4.2 4.4 2.7 3.2 9.3 14.2 7.4 3.3 1.6 0.5 0.2 0.4 0.2 0.1 0.1 0.1 0.0 0.1 0.0 0.1 0.0 0.0 0.0 0.0 0.0 0.0 0.1 0.1 0.1 0.0 0.0 0.0 0.0 0.0 0.0 0.0 0.0 0.0 0.0
0.3 7.2 5.3 2.2 0.8 2.2 3.4 3.1 2.6 6.3 6.9 7.3 2.8 1.2 0.5 0.4 0.4 0.1 0.1 0.1 0.0 0.1 0.0 0.1 0.0 0.0 0.0 0.0 0.0 0.0 0.1 0.0 0.0 0.0 0.0 0.0 0.0 0.0 0.0 0.0 0.0 0.0 0.0 0.0
0.3 4.0 4.4 3.7 0.4 1.0 2.7 1.3 1.1 1.9 1.8 3.1 2.3 1.4 0.1 0.1 0.1 0.1 0.1 0.1 0.0 0.0 0.1 0.0 0.0 0.0 0.0 0.0 0.0 0.0 0.0 0.0 0.0 0.0 0.0 0.0 0.0 0.0 0.0 0.0 0.0 0.0 0.0 0.0
0.5 1.5 8.0 4.9 1.6 2.4 4.6 0.6 0.9 1.3 1.0 1.7 2.7 0.7 0.1 0.1 0.1 0.1 0.1 0.0 0.0 0.0 0.0 0.0 0.0 0.0 0.0 0.0 0.0 0.0 0.0 0.0 0.0 0.0 0.0 0.0 0.0 0.0 0.0 0.0 0.0 0.0 0.1 0.1
0.5 1.9 7.6 5.5 3.6 5.3 1.1 0.1 0.1 0.5 0.7 0.6 0.4 0.3 0.1 0.1 0.1 0.0 0.0 0.0 0.0 0.0 0.0 0.0 0.0 0.0 0.0 0.0 0.0 0.0 0.0 0.0 0.0 0.0 0.0 0.0 0.0 0.0 0.1 0.1 0.4 0.5 0.3 0.4
0.1 1.0 6.2 6.2 4.4 2.7 0.2 0.1 0.2 0.4 1.0 0.4 0.5 0.1 0.1 0.0 0.0 0.0 0.0 0.1 0.0 0.0 0.0 0.0 0.0 0.0 0.0 0.0 0.1 0.1 0.1 0.1 0.1 0.1 0.1 0.1 0.1 0.1 0.2 0.4 0.4 0.7 1.1 1.3
0.1 0.4 4.3 5.7 4.8 2.2 0.8 0.1 0.1 0.2 0.8 0.2 0.1 0.1 0.1 0.1 0.4 0.2 0.1 0.1 0.0 0.0 0.0 0.0 0.0 0.0 0.0 0.1 0.0 0.1 0.4 0.6 0.2 0.2 0.5 0.5 0.4 0.7 1.0 1.0 1.2 1.0 1.1 1.4
1.1 2.5 4.6 4.3 4.1 0.9 0.3 0.1 0.1 0.9 2.8 0.3 0.2 0.2 0.2 0.7 0.4 0.2 0.0 0.0 0.0 0.1 0.0 0.0 0.1 0.1 0.1 0.1 0.1 0.3 0.4 0.9 1.0 0.8 0.8 0.9 1.2 1.1 1.5 1.2 1.0 1.0 1.1 1.0
0.7 1.5 1.7 2.1 3.4 1.4 0.3 0.3 0.8 0.8 0.3 0.2 0.3 0.2 0.1 0.1 0.0 0.0 0.1 0.1 0.1 0.1 0.1 0.1 0.3 0.3 0.3 0.6 1.1 1.3 1.5 1.7 1.5 1.5 1.9 2.1 1.4 1.2 1.4 1.1 1.0 1.0 0.8 0.6
0.5 0.8 0.9 1.1 1.0 0.5 0.4 0.3 0.2 0.1 0.2 0.1 0.2 0.1 0.1 0.1 0.0 0.0 0.1 0.0 0.1 0.0 0.1 0.1 0.2 0.4 0.4 0.7 0.9 1.1 1.5 0.8 1.5 1.8 1.6 1.3 0.8 0.7 0.6 0.6 0.5 0.6 0.5 0.4
0.3 0.3 0.6 0.7 0.3 0.2 0.3 0.1 0.0 0.1 0.1 0.0 0.0 0.0 0.0 0.1 0.1 0.0 0.0 0.0 0.1 0.1 0.1 0.2 0.4 0.4 0.6 0.5 0.5 0.9 1.1 0.9 0.6 0.8 0.7 0.6 0.5 0.4 0.3 0.2 0.2 0.2 0.3 0.4
0.4 0.5 0.7 0.6 0.3 0.3 0.2 0.1 0.1 0.0 0.0 0.0 0.0 0.0 0.0 0.1 0.1 0.1 0.0 0.0 0.0 0.0 0.1 0.1 0.2 0.3 0.4 0.5 0.5 0.5 0.3 0.3 0.3 0.3 0.3 0.2 0.1 0.1 0.1 0.2 0.2 0.2 0.1 0.2
0.2 0.4 0.8 0.7 0.2 0.4 0.2 0.1 0.0 0.1 0.0 0.0 0.0 0.0 0.0 0.0 0.1 0.1 0.0 0.0 0.1 0.1 0.1 0.1 0.1 0.1 0.1 0.1 0.2 0.1 0.1 0.1 0.1 0.1 0.1 0.1 0.2 0.1 0.2 0.2 0.3 0.1 0.0 0.1